Location: Arrien
(43.3167°N, 0.1500°W)
Time: 04:21:00
(UTC+00:00)

ATLAS 5 CENTAUR R/B - Pass Details

Date: 15 October 2021
Orbit: 497 x 1159 km, 63.4° (Epoch: 25 November)

Event Time Altitude Azimuth Distance (km) Brightness Sun altitude
Rises 18:57:48 0° 207° (SSW) 2,574 5.0 -19.0°
Reaches altitude 10° 18:59:53 10° 205° (SSW) 1,713 4.0 -19.4°
Maximum altitude 19:03:37 65° 123° (ESE) 588 1.1 -20.1°
Enters shadow 19:04:00 60° 87° (E) 617 1.2 -20.1°
